Notices

What's New in latest Release from April 7th, 2021:

- Updated Glossary, including Speed of Maximum Gust, and Total Hourly Precipitation

- Updated national and regional climate services offices contacts and prices information

- Addition of station inventory lists for 1981-2010, 1971-2000, and 1961-1990 Normals.

If you haven't already, please take our survey and provide feedback about our website: https://eccc.sondage-survey.ca/f/LanguageSelection.aspx?s=442ca660-fcf1-47c0-95a9-59707d6fd709

Hourly Data Report for July 14, 2020

TORONTO CITY
ONTARIO
Current Station Operator: ECCC - MSC

43°40'00.000" N
79°24'00.000" W
112.50 m
6158355
71508
XTO

Download Data

Hourly Data (July 2020)
Hourly Data Report for July 14, 2020
TIME
LST
Temp Definition
°C
Dew Point Definition
°C
Rel Hum Definition
%
Precip. Amount Definition
mm

Wind Dir Definition
10's deg

Wind Spd Definition
km/h
Visibility Definition
km
Stn Press Definition
kPa
Hmdx Definition


Wind Chill Definition


Weather Definition


00:00 19.3 14.0 72 0.0       100.08     LegendNANA
01:00 18.9 14.4 75 0.0       100.10     LegendNANA
02:00 18.7 14.5 77 0.0       100.12     LegendNANA
03:00 18.6 14.7 78 0.0       100.13     LegendNANA
04:00 18.6 14.6 78 0.0       100.20     LegendNANA
05:00 18.9 14.7 76 0.0       100.26     LegendNANA
06:00 19.5 14.7 74 0.0       100.33     LegendNANA
07:00 20.4 14.8 70 0.0       100.33     LegendNANA
08:00 21.4 15.1 67 0.0       100.36 25   LegendNANA
09:00 23.5 14.9 58 0.0       100.42 27   LegendNANA
10:00 24.4 14.2 53 0.0       100.46 28   LegendNANA
11:00 24.2 13.5 51 0.0       100.45 27   LegendNANA
12:00 26.0 12.0 42 0.0       100.39 28   LegendNANA
13:00 25.3 14.8 52 0.4       100.42 29   LegendNANA
14:00 26.4 14.5 48 0.0       100.44 30   LegendNANA
15:00 26.3 13.3 45 0.0       100.46 29   LegendNANA
16:00 25.9 11.7 41 0.3       100.45 28   LegendNANA
17:00 26.0 11.5 40 0.2       100.45 28   LegendNANA
18:00 25.1 11.2 42 0.2       100.48 27   LegendNANA
19:00 25.0 10.7 41 0.0       100.49 27   LegendNANA
20:00 23.6 11.1 45 0.0       100.50 25   LegendNANA
21:00 22.7 12.3 52 0.0       100.51 25   LegendNANA
22:00 22.7 14.2 59 0.0       100.55 26   LegendNANA
23:00 22.0 15.6 67 0.0       100.57 26   LegendNANA

Notes on Data Quality.

Legend

  • E = Estimated
  • M = Missing
  • NA = Not Available*
  • [empty] = Indicates an unobserved value
Date modified: